Tracking 23099 objects as of 14-May-2021
HD Live streaming from Space Station
objects crossing your sky now

SWAMPSAT-2

Track SWAMPSAT-2 now!
10-day predictions
SWAMPSAT-2 is classified as:


NORAD ID: 45115
Int'l Code: 2019-071E
Perigee: 418.4 km
Apogee: 423.4 km
Inclination: 51.6 °
Period: 92.8 minutes
Semi major axis: 6791 km
RCS: Unknown
Launch date: November 2, 2019
Source: United States (US)
Launch site: WALLOPS ISLAND (WLPIS)

Uplink (MHz):
Downlink (MHz): 145.875/436.600/2432.000
Beacon (MHz):
Mode: 9k6 GMSK/3Mbps QPSK
Call sign: WK2XID
Status: Active

aabbcc
Your satellite tracking list
Your tracking list is empty




NASA's NSSDC Master Catalog

Two Line Element Set (TLE):
1 45115U 19071E   21133.76388308  .00041091  00000-0  69885-3 0  9991
2 45115  51.6347 188.3994 0003699 177.5498 182.5510 15.51003858 72056
Source of the keplerian elements: AFSPC